Rayong, Thailand

5:13 AM +07 on October 22, 2017 (GMT +0700)
U-Taphao International

Weather History for VTBU - June, 2013

Change the Weather History Date:

Friday, June 14, 2013

  Actual Average Record
Temperature  
Mean Temperature 84 °F -  
Max Temperature 91 °F 90 °F 95 °F (2007)
Min Temperature 78 °F 80 °F 77 °F (2002)
Cooling Degree Days 20    
Growing Degree Days 34 (Base 50)    
Moisture  
Dew Point 75 °F    
Average Humidity 75    
Maximum Humidity 89    
Minimum Humidity 59    
Precipitation  
Precipitation 0.00 in - - ()
Sea Level Pressure  
Sea Level Pressure 29.62 in    
Wind  
Wind Speed 3 mph ()    
Max Wind Speed 12 mph    
Max Gust Speed -    
Visibility 5.2 miles    
Events Rain    
Averages and records for this station are not official NWS values.
T = Trace of Precipitation, MM = Missing Value Source: Averaged Metar Reports

Daily Weather History Graph

Daily Weather History Graph

Search for Another Location

Airport or City:

Trip Planner

Search our weather history database for the weather conditions in past years. The results will help you decide how hot, cold, wet, or windy it might be!

Date:

Astronomy

Jun. 14, 2013 Rise Set
Actual Time 5:48 AM +07 6:40 PM +07
Civil Twilight 5:25 AM +07 7:04 PM +07
Nautical Twilight 4:58 AM +07 7:31 PM +07
Astronomical Twilight 4:30 AM +07 7:59 PM +07
Moon 10:12 AM +07 (6/14) 10:48 PM +07 (6/14)
Length of Visible Light 13h 38m
Length of Day
12h 51m
Waxing Crescent, 26% of the Moon is Illuminated
Jun 14
Waxing Crescent
Jun 17
First Quarter
Jun 23
Full
Jun 30
Last Quarter
Jul 8
New

Hourly Weather History & Observations

Time (+07) Temp. Heat Index Dew Point Humidity Pressure Visibility Wind Dir Wind Speed Gust Speed Precip Events Conditions
12:00 AM 80.6 °F 87.1 °F 77.0 °F 89% 29.65 in 3.1 mi Calm Calm - N/A Rain Light Rain
12:30 AM 80.6 °F 86.2 °F 75.2 °F 84% 29.65 in 3.1 mi Calm Calm - N/A Rain Light Rain
1:00 AM 78.8 °F - 75.2 °F 89% 29.65 in 3.1 mi ENE 4.6 mph - N/A Rain Light Rain
1:30 AM 78.8 °F - 75.2 °F 89% 29.62 in 3.1 mi ENE 3.5 mph - N/A Rain Light Rain
2:00 AM 78.8 °F - 75.2 °F 89% 29.62 in 3.1 mi NE 4.6 mph - N/A Rain Light Rain
2:30 AM 78.8 °F - 75.2 °F 89% 29.62 in 3.1 mi NE 3.5 mph - N/A Rain Light Rain
3:00 AM 78.8 °F - 75.2 °F 89% 29.62 in 3.1 mi NE 4.6 mph - N/A   Mostly Cloudy
3:30 AM 78.8 °F - 75.2 °F 89% 29.62 in 3.1 mi NE 3.5 mph - N/A Rain Light Rain
4:00 AM 78.8 °F - 75.2 °F 89% 29.62 in 3.1 mi Calm Calm - N/A Rain Light Rain
5:30 AM 78.8 °F - 75.2 °F 89% 29.65 in 3.7 mi Calm Calm - N/A   Mostly Cloudy
6:00 AM 78.8 °F - 75.2 °F 89% 29.65 in 3.7 mi Calm Calm - N/A   Mostly Cloudy
6:30 AM 78.8 °F - 75.2 °F 89% 29.65 in 3.7 mi Calm Calm - N/A   Mostly Cloudy
7:00 AM 78.8 °F - 75.2 °F 89% 29.65 in 3.7 mi Calm Calm - N/A   Mostly Cloudy
7:30 AM 80.6 °F 87.1 °F 77.0 °F 89% 29.65 in 3.7 mi Calm Calm - N/A   Mostly Cloudy
8:00 AM 80.6 °F 86.2 °F 75.2 °F 84% 29.65 in 4.3 mi Calm Calm - N/A   Mostly Cloudy
8:30 AM 82.4 °F 90.9 °F 77.0 °F 84% 29.65 in 4.3 mi Calm Calm - N/A   Mostly Cloudy
9:00 AM 84.2 °F 92.3 °F 75.2 °F 74% 29.65 in 5.0 mi SSE 3.5 mph - N/A   Mostly Cloudy
9:30 AM 86.0 °F 96.9 °F 77.0 °F 74% 29.65 in 5.6 mi West 3.5 mph - N/A   Mostly Cloudy
10:00 AM 86.0 °F 96.9 °F 77.0 °F 74% 29.65 in 6.2 mi WNW 3.5 mph - N/A   Mostly Cloudy
10:30 AM 86.0 °F 95.1 °F 75.2 °F 70% 29.65 in 6.2 mi West 4.6 mph - N/A   Mostly Cloudy
11:00 AM 87.8 °F 97.6 °F 75.2 °F 66% 29.65 in 6.2 mi West 11.5 mph - N/A   Mostly Cloudy
11:30 AM 87.8 °F 97.6 °F 75.2 °F 66% 29.65 in 6.2 mi West 4.6 mph - N/A   Mostly Cloudy
12:00 PM 87.8 °F 97.6 °F 75.2 °F 66% 29.62 in 6.2 mi WNW 9.2 mph - N/A   Mostly Cloudy
12:30 PM 87.8 °F 97.6 °F 75.2 °F 66% 29.62 in 6.2 mi West 6.9 mph - N/A   Mostly Cloudy
1:00 PM 89.6 °F 98.2 °F 73.4 °F 59% 29.62 in 6.2 mi West 9.2 mph - N/A   Mostly Cloudy
1:30 PM 87.8 °F 95.6 °F 73.4 °F 62% 29.62 in 6.2 mi WNW 11.5 mph - N/A   Mostly Cloudy
2:00 PM 91.4 °F 102.5 °F 75.2 °F 59% 29.59 in 6.2 mi West 8.1 mph - N/A   Mostly Cloudy
2:30 PM 89.6 °F 98.2 °F 73.4 °F 59% 29.59 in 6.2 mi West 11.5 mph - N/A   Mostly Cloudy
3:00 PM 89.6 °F 99.8 °F 75.2 °F 62% 29.59 in 6.2 mi WNW 9.2 mph - N/A   Mostly Cloudy
3:30 PM 89.6 °F 98.2 °F 73.4 °F 59% 29.56 in 6.2 mi WSW 6.9 mph - N/A   Mostly Cloudy
4:00 PM 87.8 °F 95.6 °F 73.4 °F 62% 29.56 in 6.2 mi WSW 3.5 mph - N/A   Mostly Cloudy
4:30 PM 87.8 °F 95.6 °F 73.4 °F 62% 29.56 in 6.2 mi West 6.9 mph - N/A   Mostly Cloudy
5:00 PM 87.8 °F 95.6 °F 73.4 °F 62% 29.56 in 6.2 mi West 6.9 mph - N/A   Mostly Cloudy
5:30 PM 87.8 °F 97.6 °F 75.2 °F 66% 29.56 in 6.2 mi West 4.6 mph - N/A   Mostly Cloudy
6:00 PM 86.0 °F 95.1 °F 75.2 °F 70% 29.56 in 6.2 mi West 6.9 mph - N/A   Mostly Cloudy
6:30 PM 87.8 °F 95.6 °F 73.4 °F 62% 29.59 in 6.2 mi West 6.9 mph - N/A   Mostly Cloudy
7:00 PM 84.2 °F 90.9 °F 73.4 °F 70% 29.59 in 6.2 mi West 3.5 mph - N/A   Mostly Cloudy
7:30 PM 84.2 °F 92.3 °F 75.2 °F 74% 29.59 in 6.2 mi SW 4.6 mph - N/A   Mostly Cloudy
8:00 PM 84.2 °F 92.3 °F 75.2 °F 74% 29.62 in 6.2 mi SW 4.6 mph - N/A   Mostly Cloudy
8:30 PM 86.0 °F 95.1 °F 75.2 °F 70% 29.62 in 6.2 mi South 3.5 mph - N/A   Mostly Cloudy
9:00 PM 86.0 °F 96.9 °F 77.0 °F 74% 29.62 in 6.2 mi South 2.3 mph - N/A   Mostly Cloudy
9:30 PM 86.0 °F 96.9 °F 77.0 °F 74% 29.65 in 6.2 mi SW 3.5 mph - N/A   Mostly Cloudy
10:00 PM 86.0 °F 99.3 °F 78.8 °F 79% 29.65 in 6.2 mi North 3.5 mph - N/A   Mostly Cloudy
10:30 PM 84.2 °F 94.1 °F 77.0 °F 79% 29.65 in 6.2 mi NE 3.5 mph - N/A   Mostly Cloudy
11:00 PM 84.2 °F 94.1 °F 77.0 °F 79% 29.65 in 5.6 mi North 2.3 mph - N/A   Mostly Cloudy